Time,TemperatureF,DewpointF,PressureIn,WindDirection,WindDirectionDegrees,WindSpeedMPH,WindSpeedGustMPH,Humidity,HourlyPrecipIn,Conditions,Clouds,dailyrainin,SoftwareType,DateUTC
2013-02-19 07:24:00,39.6,38.2,0.00,SE,124,2.7,5.9,94,0.00,,,0.00,WUHU216CR1000,2013-02-19 15:24:00,
2013-02-19 07:29:00,39.6,38.2,0.00,SE,124,2.7,5.9,94,0.00,,,0.00,WUHU216CR1000,2013-02-19 15:29:00,
2013-02-19 07:34:00,39.7,38.3,0.00,ESE,102,3.7,6.6,95,0.00,,,0.00,WUHU216CR1000,2013-02-19 15:34:00,
2013-02-19 07:39:00,39.7,38.3,0.00,ESE,102,3.7,6.6,95,0.00,,,0.00,WUHU216CR1000,2013-02-19 15:39:00,
2013-02-19 07:44:00,39.7,38.3,0.00,ESE,102,3.7,6.6,95,0.00,,,0.00,WUHU216CR1000,2013-02-19 15:44:00,
2013-02-19 07:49:00,39.7,38.3,0.00,ESE,118,3.1,6.6,95,0.00,,,0.00,WUHU216CR1000,2013-02-19 15:49:00,
2013-02-19 07:54:00,39.7,38.3,0.00,ESE,118,3.1,5.8,95,0.00,,,0.00,WUHU216CR1000,2013-02-19 15:54:00,
2013-02-19 08:02:00,40.0,38.7,0.00,ESE,112,2.2,4.2,95,0.00,,,0.00,WUHU216CR1000,2013-02-19 16:02:00,
2013-02-19 08:07:00,40.0,38.7,0.00,ESE,112,2.2,4.2,95,0.00,,,0.00,WUHU216CR1000,2013-02-19 16:07:00,
2013-02-19 08:12:00,40.0,38.7,0.00,ESE,112,2.2,4.2,95,0.00,,,0.00,WUHU216CR1000,2013-02-19 16:12:00,
2013-02-19 08:17:00,40.3,39.0,0.00,East,93,2.1,4.5,95,0.00,,,0.00,WUHU216CR1000,2013-02-19 16:17:00,
2013-02-19 08:22:00,40.3,39.0,0.00,East,93,2.1,4.5,95,0.00,,,0.00,WUHU216CR1000,2013-02-19 16:22:00,
2013-02-19 08:32:00,40.7,39.5,0.00,South,175,1.0,3.2,95,0.00,,,0.00,WUHU216CR1000,2013-02-19 16:32:00,
2013-02-19 08:37:00,40.7,39.5,0.00,South,175,1.0,3.2,95,0.00,,,0.00,WUHU216CR1000,2013-02-19 16:37:00,
2013-02-19 08:42:00,40.7,39.5,0.00,South,175,1.0,3.2,95,0.00,,,0.00,WUHU216CR1000,2013-02-19 16:42:00,
2013-02-19 08:47:00,41.1,39.8,0.00,SSW,209,0.8,3.2,95,0.00,,,0.00,WUHU216CR1000,2013-02-19 16:47:00,
2013-02-19 08:52:00,41.1,39.8,0.00,SSW,209,0.8,2.0,95,0.00,,,0.00,WUHU216CR1000,2013-02-19 16:52:00,
2013-02-19 09:02:00,41.7,40.1,0.00,WNW,292,2.5,6.5,94,0.00,,,0.00,WUHU216CR1000,2013-02-19 17:02:00,
2013-02-19 09:07:00,41.7,40.1,0.00,WNW,292,2.5,6.5,94,0.00,,,0.00,WUHU216CR1000,2013-02-19 17:07:00,
2013-02-19 09:12:00,41.7,40.1,0.00,WNW,292,2.5,6.5,94,0.00,,,0.00,WUHU216CR1000,2013-02-19 17:12:00,
2013-02-19 09:17:00,43.4,40.3,0.00,NW,304,2.5,6.8,89,0.00,,,0.00,WUHU216CR1000,2013-02-19 17:17:00,
2013-02-19 09:22:00,43.4,40.3,0.00,NW,304,2.5,6.8,89,0.00,,,0.00,WUHU216CR1000,2013-02-19 17:22:00,
2013-02-19 09:32:00,44.3,39.3,0.00,WNW,285,4.0,6.9,82,0.00,,,0.00,WUHU216CR1000,2013-02-19 17:32:00,
2013-02-19 09:37:00,44.3,39.3,0.00,WNW,285,4.0,6.9,82,0.00,,,0.00,WUHU216CR1000,2013-02-19 17:37:00,
2013-02-19 09:42:00,44.3,39.3,0.00,WNW,285,4.0,6.9,82,0.00,,,0.00,WUHU216CR1000,2013-02-19 17:42:00,
2013-02-19 09:47:00,44.3,39.1,0.00,NNW,342,2.9,6.9,82,0.00,,,0.00,WUHU216CR1000,2013-02-19 17:47:00,
2013-02-19 09:52:00,44.3,39.1,0.00,NNW,342,2.9,5.7,82,0.00,,,0.00,WUHU216CR1000,2013-02-19 17:52:00,
2013-02-19 10:02:00,45.0,39.1,0.00,NW,307,2.0,4.2,80,0.00,,,0.00,WUHU216CR1000,2013-02-19 18:02:00,
2013-02-19 10:07:00,45.0,39.1,0.00,NW,307,2.0,4.2,80,0.00,,,0.00,WUHU216CR1000,2013-02-19 18:07:00,
2013-02-19 10:12:00,45.0,39.1,0.00,NW,307,2.0,4.2,80,0.00,,,0.00,WUHU216CR1000,2013-02-19 18:12:00,
2013-02-19 10:17:00,47.2,39.1,0.00,NW,325,2.8,8.2,73,0.00,,,0.00,WUHU216CR1000,2013-02-19 18:17:00,
2013-02-19 10:22:00,47.2,39.1,0.00,NW,325,2.8,8.2,73,0.00,,,0.00,WUHU216CR1000,2013-02-19 18:22:00,
2013-02-19 10:32:00,46.2,38.4,0.00,WNW,295,7.0,22.1,74,0.00,,,0.00,WUHU216CR1000,2013-02-19 18:32:00,
2013-02-19 10:37:00,46.2,38.4,0.00,WNW,295,7.0,22.1,74,0.00,,,0.00,WUHU216CR1000,2013-02-19 18:37:00,
2013-02-19 10:42:00,46.2,38.4,0.00,WNW,295,7.0,22.1,74,0.00,,,0.00,WUHU216CR1000,2013-02-19 18:42:00,
2013-02-19 10:47:00,42.0,36.2,0.00,WNW,287,10.8,22.1,80,0.00,,,0.00,WUHU216CR1000,2013-02-19 18:47:00,
2013-02-19 10:52:00,42.0,36.2,0.00,WNW,287,10.8,22.1,80,0.00,,,0.00,WUHU216CR1000,2013-02-19 18:52:00,
2013-02-19 10:57:00,42.0,36.2,0.00,WNW,287,10.8,22.1,80,0.00,,,0.00,WUHU216CR1000,2013-02-19 18:57:00,
2013-02-19 11:02:00,41.4,36.8,0.00,WNW,303,4.2,11.3,83,0.00,,,0.00,WUHU216CR1000,2013-02-19 19:02:00,
2013-02-19 11:07:00,41.4,36.8,0.00,WNW,303,4.2,11.3,83,0.00,,,0.00,WUHU216CR1000,2013-02-19 19:07:00,
2013-02-19 11:12:00,41.4,36.8,0.00,WNW,303,4.2,11.3,83,0.00,,,0.00,WUHU216CR1000,2013-02-19 19:12:00,
2013-02-19 11:17:00,43.3,38.2,0.00,NW,308,4.4,12.4,82,0.00,,,0.00,WUHU216CR1000,2013-02-19 19:17:00,
2013-02-19 11:22:00,43.3,38.2,0.00,NW,308,4.4,12.4,82,0.00,,,0.00,WUHU216CR1000,2013-02-19 19:22:00,
2013-02-19 11:32:00,44.3,37.6,0.00,WNW,293,7.8,16.4,77,0.00,,,0.00,WUHU216CR1000,2013-02-19 19:32:00,
2013-02-19 11:37:00,44.3,37.6,0.00,WNW,293,7.8,16.4,77,0.00,,,0.00,WUHU216CR1000,2013-02-19 19:37:00,
2013-02-19 11:42:00,44.3,37.6,0.00,WNW,293,7.8,16.4,77,0.00,,,0.00,WUHU216CR1000,2013-02-19 19:42:00,
2013-02-19 11:47:00,45.5,37.9,0.00,WNW,295,7.5,16.4,75,0.00,,,0.00,WUHU216CR1000,2013-02-19 19:47:00,
2013-02-19 11:52:00,45.5,37.9,0.00,WNW,295,7.5,16.3,75,0.00,,,0.00,WUHU216CR1000,2013-02-19 19:52:00,
2013-02-19 12:02:00,47.0,37.6,0.00,NW,321,5.4,13.2,70,0.00,,,0.00,WUHU216CR1000,2013-02-19 20:02:00,
2013-02-19 12:07:00,47.0,37.6,0.00,NW,321,5.4,13.2,70,0.00,,,0.00,WUHU216CR1000,2013-02-19 20:07:00,
2013-02-19 12:12:00,47.0,37.6,0.00,NW,321,5.4,13.2,70,0.00,,,0.00,WUHU216CR1000,2013-02-19 20:12:00,
2013-02-19 12:17:00,46.2,36.0,0.00,NNW,332,4.8,13.2,68,0.00,,,0.00,WUHU216CR1000,2013-02-19 20:17:00,
2013-02-19 12:22:00,46.2,36.0,0.00,NNW,332,4.8,11.7,68,0.00,,,0.00,WUHU216CR1000,2013-02-19 20:22:00,
2013-02-19 12:32:00,47.1,35.9,0.00,NW,309,5.6,12.8,65,0.00,,,0.00,WUHU216CR1000,2013-02-19 20:32:00,
2013-02-19 12:37:00,47.1,35.9,0.00,NW,309,5.6,12.8,65,0.00,,,0.00,WUHU216CR1000,2013-02-19 20:37:00,
2013-02-19 12:42:00,47.1,35.9,0.00,NW,309,5.6,12.8,65,0.00,,,0.00,WUHU216CR1000,2013-02-19 20:42:00,
2013-02-19 12:47:00,47.6,34.5,0.00,NW,317,7.2,15.7,60,0.00,,,0.00,WUHU216CR1000,2013-02-19 20:47:00,
2013-02-19 12:52:00,47.6,34.5,0.00,NW,317,7.2,15.7,60,0.00,,,0.00,WUHU216CR1000,2013-02-19 20:52:00,
2013-02-19 12:57:00,47.6,34.5,0.00,NW,317,7.2,15.7,60,0.00,,,0.00,WUHU216CR1000,2013-02-19 20:57:00,
2013-02-19 13:02:00,48.5,35.7,0.00,NW,326,6.2,14.5,61,0.00,,,0.00,WUHU216CR1000,2013-02-19 21:02:00,
2013-02-19 13:07:00,48.5,35.7,0.00,NW,326,6.2,14.5,61,0.00,,,0.00,WUHU216CR1000,2013-02-19 21:07:00,
2013-02-19 13:12:00,48.5,35.7,0.00,NW,326,6.2,14.5,61,0.00,,,0.00,WUHU216CR1000,2013-02-19 21:12:00,
2013-02-19 13:17:00,48.6,35.0,0.00,NW,313,5.9,11.9,59,0.00,,,0.00,WUHU216CR1000,2013-02-19 21:17:00,
2013-02-19 13:22:00,48.6,35.0,0.00,NW,313,5.9,11.9,59,0.00,,,0.00,WUHU216CR1000,2013-02-19 21:22:00,
2013-02-19 13:27:00,48.6,35.0,0.00,NW,313,5.9,11.9,59,0.00,,,0.00,WUHU216CR1000,2013-02-19 21:27:00,
2013-02-19 13:32:00,48.8,34.5,0.00,NW,307,7.1,16.9,58,0.00,,,0.00,WUHU216CR1000,2013-02-19 21:32:00,
2013-02-19 13:33:00,48.8,34.5,0.00,NW,307,7.1,16.9,58,0.00,,,0.00,WUHU216CR1000,2013-02-19 21:33:00,
2013-02-19 13:37:00,48.8,34.5,0.00,NW,307,7.1,16.9,58,0.00,,,0.00,WUHU216CR1000,2013-02-19 21:37:00,
2013-02-19 13:42:00,48.8,34.5,0.00,NW,307,7.1,16.9,58,0.00,,,0.00,WUHU216CR1000,2013-02-19 21:42:00,
2013-02-19 13:47:00,48.8,33.4,0.00,NW,310,8.6,18.4,55,0.00,,,0.00,WUHU216CR1000,2013-02-19 21:47:00,
2013-02-19 13:52:00,48.8,33.4,0.00,NW,310,8.6,18.4,55,0.00,,,0.00,WUHU216CR1000,2013-02-19 21:52:00,
2013-02-19 13:57:00,48.8,33.4,0.00,NW,310,8.6,18.4,55,0.00,,,0.00,WUHU216CR1000,2013-02-19 21:57:00,
2013-02-19 14:02:00,47.3,32.9,0.00,WNW,288,10.2,18.9,57,0.00,,,0.00,WUHU216CR1000,2013-02-19 22:02:00,
2013-02-19 14:07:00,47.3,32.9,0.00,WNW,288,10.2,18.9,57,0.00,,,0.00,WUHU216CR1000,2013-02-19 22:07:00,
2013-02-19 14:12:00,47.3,32.9,0.00,WNW,288,10.2,18.9,57,0.00,,,0.00,WUHU216CR1000,2013-02-19 22:12:00,
2013-02-19 14:17:00,47.4,32.6,0.00,WNW,293,8.3,20.9,56,0.00,,,0.00,WUHU216CR1000,2013-02-19 22:17:00,
2013-02-19 14:22:00,47.4,32.6,0.00,WNW,293,8.3,20.9,56,0.00,,,0.00,WUHU216CR1000,2013-02-19 22:22:00,
2013-02-19 14:27:00,47.4,32.6,0.00,WNW,293,8.3,20.9,56,0.00,,,0.00,WUHU216CR1000,2013-02-19 22:27:00,
2013-02-19 14:32:00,48.9,32.8,0.00,NW,312,8.4,19.0,54,0.00,,,0.00,WUHU216CR1000,2013-02-19 22:32:00,
2013-02-19 14:37:00,48.9,32.8,0.00,NW,312,8.4,19.0,54,0.00,,,0.00,WUHU216CR1000,2013-02-19 22:37:00,
2013-02-19 14:42:00,48.9,32.8,0.00,NW,312,8.4,19.0,54,0.00,,,0.00,WUHU216CR1000,2013-02-19 22:42:00,
2013-02-19 14:47:00,47.6,32.1,0.00,NW,319,5.4,11.5,55,0.00,,,0.00,WUHU216CR1000,2013-02-19 22:47:00,
2013-02-19 14:52:00,47.6,32.1,0.00,NW,319,5.4,11.5,55,0.00,,,0.00,WUHU216CR1000,2013-02-19 22:52:00,
2013-02-19 14:57:00,47.6,32.1,0.00,NW,319,5.4,11.5,55,0.00,,,0.00,WUHU216CR1000,2013-02-19 22:57:00,
2013-02-19 15:02:00,49.0,32.6,0.00,NW,307,6.0,13.7,53,0.00,,,0.00,WUHU216CR1000,2013-02-19 23:02:00,
2013-02-19 15:07:00,49.0,32.6,0.00,NW,307,6.0,13.7,53,0.00,,,0.00,WUHU216CR1000,2013-02-19 23:07:00,
2013-02-19 15:12:00,49.0,32.6,0.00,NW,307,6.0,13.7,53,0.00,,,0.00,WUHU216CR1000,2013-02-19 23:12:00,
2013-02-19 15:17:00,46.7,32.4,0.00,NNW,329,7.8,17.0,57,0.00,,,0.00,WUHU216CR1000,2013-02-19 23:17:00,
2013-02-19 15:22:00,46.7,32.4,0.00,NNW,329,7.8,17.0,57,0.00,,,0.00,WUHU216CR1000,2013-02-19 23:22:00,
2013-02-19 15:27:00,46.7,32.4,0.00,NNW,329,7.8,17.0,57,0.00,,,0.00,WUHU216CR1000,2013-02-19 23:27:00,
2013-02-19 15:32:00,45.4,35.0,0.00,NW,321,7.2,15.6,67,0.00,,,0.00,WUHU216CR1000,2013-02-19 23:32:00,
2013-02-19 15:37:00,45.4,35.0,0.00,NW,321,7.2,15.6,67,0.00,,,0.00,WUHU216CR1000,2013-02-19 23:37:00,
2013-02-19 15:42:00,45.4,35.0,0.00,NW,321,7.2,15.6,67,0.00,,,0.00,WUHU216CR1000,2013-02-19 23:42:00,
2013-02-19 15:47:00,44.0,33.9,0.00,NW,322,5.8,17.8,68,0.00,,,0.00,WUHU216CR1000,2013-02-19 23:47:00,
2013-02-19 15:52:00,44.0,33.9,0.00,NW,322,5.8,17.8,68,0.00,,,0.00,WUHU216CR1000,2013-02-19 23:52:00,
2013-02-19 15:57:00,44.0,33.9,0.00,NW,322,5.8,17.8,68,0.00,,,0.00,WUHU216CR1000,2013-02-19 23:57:00,
2013-02-19 16:02:00,45.7,33.3,0.00,NNW,337,6.7,17.2,62,0.00,,,0.00,WUHU216CR1000,2013-02-20 00:02:00,
2013-02-19 16:07:00,45.7,33.3,0.00,NNW,337,6.7,17.2,62,0.00,,,0.00,WUHU216CR1000,2013-02-20 00:07:00,
2013-02-19 16:12:00,45.7,33.3,0.00,NNW,337,6.7,17.2,62,0.00,,,0.00,WUHU216CR1000,2013-02-20 00:12:00,
2013-02-19 16:17:00,45.5,32.7,0.00,NNW,333,5.8,13.5,61,0.00,,,0.00,WUHU216CR1000,2013-02-20 00:17:00,
2013-02-19 16:22:00,45.5,32.7,0.00,NNW,333,5.8,13.5,61,0.00,,,0.00,WUHU216CR1000,2013-02-20 00:22:00,
2013-02-19 16:27:00,45.5,32.7,0.00,NNW,333,5.8,13.5,61,0.00,,,0.00,WUHU216CR1000,2013-02-20 00:27:00,
2013-02-19 16:32:00,45.9,31.9,0.00,NW,314,5.8,14.9,58,0.00,,,0.00,WUHU216CR1000,2013-02-20 00:32:00,
2013-02-19 16:37:00,45.9,31.9,0.00,NW,314,5.8,14.9,58,0.00,,,0.00,WUHU216CR1000,2013-02-20 00:37:00,
2013-02-19 16:42:00,45.9,31.9,0.00,NW,314,5.8,14.9,58,0.00,,,0.00,WUHU216CR1000,2013-02-20 00:42:00,
2013-02-19 16:47:00,45.6,32.8,0.00,WNW,303,5.7,12.7,61,0.00,,,0.00,WUHU216CR1000,2013-02-20 00:47:00,
2013-02-19 16:52:00,45.6,32.8,0.00,WNW,303,5.7,12.7,61,0.00,,,0.00,WUHU216CR1000,2013-02-20 00:52:00,
2013-02-19 16:57:00,45.6,32.8,0.00,WNW,303,5.7,12.7,61,0.00,,,0.00,WUHU216CR1000,2013-02-20 00:57:00,
2013-02-19 17:02:00,43.6,33.7,0.00,WNW,289,5.5,9.8,68,0.00,,,0.00,WUHU216CR1000,2013-02-20 01:02:00,
2013-02-19 17:07:00,43.6,33.7,0.00,WNW,289,5.5,9.8,68,0.00,,,0.00,WUHU216CR1000,2013-02-20 01:07:00,
2013-02-19 17:12:00,43.6,33.7,0.00,WNW,289,5.5,9.8,68,0.00,,,0.00,WUHU216CR1000,2013-02-20 01:12:00,
2013-02-19 17:17:00,44.5,33.3,0.00,NW,309,4.2,9.9,64,0.00,,,0.00,WUHU216CR1000,2013-02-20 01:17:00,
2013-02-19 17:22:00,44.5,33.3,0.00,NW,309,4.2,9.9,64,0.00,,,0.00,WUHU216CR1000,2013-02-20 01:22:00,
2013-02-19 17:27:00,44.5,33.3,0.00,NW,309,4.2,9.9,64,0.00,,,0.00,WUHU216CR1000,2013-02-20 01:27:00,
2013-02-19 17:32:00,45.1,32.2,0.00,NNW,336,3.8,9.9,60,0.00,,,0.00,WUHU216CR1000,2013-02-20 01:32:00,
2013-02-19 17:37:00,45.1,32.2,0.00,NNW,336,3.8,9.9,60,0.00,,,0.00,WUHU216CR1000,2013-02-20 01:37:00,
2013-02-19 17:42:00,45.1,32.2,0.00,NNW,336,3.8,9.9,60,0.00,,,0.00,WUHU216CR1000,2013-02-20 01:42:00,
2013-02-19 17:47:00,43.8,31.2,0.00,NNW,338,4.9,11.9,61,0.00,,,0.00,WUHU216CR1000,2013-02-20 01:47:00,
2013-02-19 17:52:00,43.8,31.2,0.00,NNW,338,4.9,11.9,61,0.00,,,0.00,WUHU216CR1000,2013-02-20 01:52:00,
2013-02-19 17:57:00,43.8,31.2,0.00,NNW,338,4.9,11.9,61,0.00,,,0.00,WUHU216CR1000,2013-02-20 01:57:00,
2013-02-19 18:02:00,43.0,31.1,0.00,NNW,335,3.2,9.6,63,0.00,,,0.00,WUHU216CR1000,2013-02-20 02:02:00,
2013-02-19 18:07:00,43.0,31.1,0.00,NNW,335,3.2,9.6,63,0.00,,,0.00,WUHU216CR1000,2013-02-20 02:07:00,
2013-02-19 18:12:00,43.0,31.1,0.00,NNW,335,3.2,9.6,63,0.00,,,0.00,WUHU216CR1000,2013-02-20 02:12:00,
2013-02-19 18:17:00,42.0,32.2,0.00,WNW,301,4.1,8.2,68,0.00,,,0.00,WUHU216CR1000,2013-02-20 02:17:00,
2013-02-19 18:22:00,42.0,32.2,0.00,WNW,301,4.1,8.2,68,0.00,,,0.00,WUHU216CR1000,2013-02-20 02:22:00,
2013-02-19 18:27:00,42.0,32.2,0.00,WNW,301,4.1,8.2,68,0.00,,,0.00,WUHU216CR1000,2013-02-20 02:27:00,
2013-02-19 18:32:00,40.7,33.1,0.00,WNW,297,3.8,7.7,74,0.00,,,0.00,WUHU216CR1000,2013-02-20 02:32:00,
2013-02-19 18:37:00,40.7,33.1,0.00,WNW,297,3.8,7.7,74,0.00,,,0.00,WUHU216CR1000,2013-02-20 02:37:00,
2013-02-19 18:42:00,40.7,33.1,0.00,WNW,297,3.8,7.7,74,0.00,,,0.00,WUHU216CR1000,2013-02-20 02:42:00,
2013-02-19 18:47:00,39.9,32.9,0.00,WNW,297,2.9,5.0,76,0.00,,,0.00,WUHU216CR1000,2013-02-20 02:47:00,
2013-02-19 18:52:00,39.9,32.9,0.00,WNW,297,2.9,5.0,76,0.00,,,0.00,WUHU216CR1000,2013-02-20 02:52:00,
2013-02-19 18:57:00,39.9,32.9,0.00,WNW,297,2.9,5.0,76,0.00,,,0.00,WUHU216CR1000,2013-02-20 02:57:00,
2013-02-19 19:02:00,39.4,33.1,0.00,WNW,287,4.6,8.1,78,0.00,,,0.00,WUHU216CR1000,2013-02-20 03:02:00,
2013-02-19 19:07:00,39.4,33.1,0.00,WNW,287,4.6,8.1,78,0.00,,,0.00,WUHU216CR1000,2013-02-20 03:07:00,
2013-02-19 19:12:00,39.4,33.1,0.00,WNW,287,4.6,8.1,78,0.00,,,0.00,WUHU216CR1000,2013-02-20 03:12:00,
2013-02-19 19:17:00,39.6,33.1,0.00,WNW,287,5.2,9.5,77,0.00,,,0.00,WUHU216CR1000,2013-02-20 03:17:00,
2013-02-19 19:22:00,39.6,33.1,0.00,WNW,287,5.2,9.5,77,0.00,,,0.00,WUHU216CR1000,2013-02-20 03:22:00,
2013-02-19 19:27:00,39.6,33.1,0.00,WNW,287,5.2,9.5,77,0.00,,,0.00,WUHU216CR1000,2013-02-20 03:27:00,
2013-02-19 19:32:00,39.5,32.6,0.00,NW,316,3.3,8.3,76,0.00,,,0.00,WUHU216CR1000,2013-02-20 03:32:00,
2013-02-19 19:37:00,39.5,32.6,0.00,NW,316,3.3,8.3,76,0.00,,,0.00,WUHU216CR1000,2013-02-20 03:37:00,
2013-02-19 19:42:00,39.5,32.6,0.00,NW,316,3.3,8.3,76,0.00,,,0.00,WUHU216CR1000,2013-02-20 03:42:00,
2013-02-19 19:47:00,38.9,32.3,0.00,WNW,286,5.0,7.9,77,0.00,,,0.00,WUHU216CR1000,2013-02-20 03:47:00,
2013-02-19 19:52:00,38.9,32.3,0.00,WNW,286,5.0,7.9,77,0.00,,,0.00,WUHU216CR1000,2013-02-20 03:52:00,
2013-02-19 19:57:00,38.9,32.3,0.00,WNW,286,5.0,7.9,77,0.00,,,0.00,WUHU216CR1000,2013-02-20 03:57:00,
2013-02-19 20:02:00,38.3,32.3,0.00,West,275,6.6,10.2,79,0.00,,,0.00,WUHU216CR1000,2013-02-20 04:02:00,
2013-02-19 20:03:00,38.3,32.3,0.00,West,275,6.6,10.2,79,0.00,,,0.00,WUHU216CR1000,2013-02-20 04:03:00,
2013-02-19 20:07:00,38.3,32.3,0.00,West,275,6.6,10.2,79,0.00,,,0.00,WUHU216CR1000,2013-02-20 04:07:00,
2013-02-19 20:12:00,38.3,32.3,0.00,West,275,6.6,10.2,79,0.00,,,0.00,WUHU216CR1000,2013-02-20 04:12:00,
2013-02-19 20:17:00,38.7,32.1,0.00,West,281,6.4,10.3,77,0.00,,,0.00,WUHU216CR1000,2013-02-20 04:17:00,
2013-02-19 20:18:00,38.7,32.1,0.00,West,281,6.4,10.3,77,0.00,,,0.00,WUHU216CR1000,2013-02-20 04:18:00,
2013-02-19 20:22:00,38.7,32.1,0.00,West,281,6.4,10.3,77,0.00,,,0.00,WUHU216CR1000,2013-02-20 04:22:00,
2013-02-19 20:27:00,38.7,32.1,0.00,West,281,6.4,10.3,77,0.00,,,0.00,WUHU216CR1000,2013-02-20 04:27:00,
2013-02-19 20:32:00,38.8,32.2,0.00,West,281,6.8,10.6,77,0.00,,,0.00,WUHU216CR1000,2013-02-20 04:32:00,
2013-02-19 20:37:00,38.8,32.2,0.00,West,281,6.8,10.6,77,0.00,,,0.00,WUHU216CR1000,2013-02-20 04:37:00,
2013-02-19 20:42:00,38.8,32.2,0.00,West,281,6.8,10.6,77,0.00,,,0.00,WUHU216CR1000,2013-02-20 04:42:00,
2013-02-19 20:47:00,38.7,32.1,0.00,West,281,5.5,8.9,77,0.00,,,0.00,WUHU216CR1000,2013-02-20 04:47:00,
2013-02-19 20:52:00,38.7,32.1,0.00,West,281,5.5,8.9,77,0.00,,,0.00,WUHU216CR1000,2013-02-20 04:52:00,
2013-02-19 20:57:00,38.7,32.1,0.00,West,281,5.5,8.9,77,0.00,,,0.00,WUHU216CR1000,2013-02-20 04:57:00,
2013-02-19 21:02:00,38.9,32.1,0.00,West,280,5.2,9.5,76,0.00,,,0.00,WUHU216CR1000,2013-02-20 05:02:00,
2013-02-19 21:07:00,38.9,32.1,0.00,West,280,5.2,9.5,76,0.00,,,0.00,WUHU216CR1000,2013-02-20 05:07:00,
2013-02-19 21:12:00,38.9,32.1,0.00,West,280,5.2,9.5,76,0.00,,,0.00,WUHU216CR1000,2013-02-20 05:12:00,
2013-02-19 21:17:00,39.2,32.2,0.00,WNW,286,7.1,13.2,76,0.00,,,0.00,WUHU216CR1000,2013-02-20 05:17:00,
2013-02-19 21:22:00,39.2,32.2,0.00,WNW,286,7.1,13.2,76,0.00,,,0.00,WUHU216CR1000,2013-02-20 05:22:00,
2013-02-19 21:27:00,39.2,32.2,0.00,WNW,286,7.1,13.2,76,0.00,,,0.00,WUHU216CR1000,2013-02-20 05:27:00,
2013-02-19 21:32:00,38.6,32.0,0.00,WNW,294,4.5,10.0,77,0.00,,,0.00,WUHU216CR1000,2013-02-20 05:32:00,
2013-02-19 21:33:00,38.6,32.0,0.00,WNW,294,4.5,10.0,77,0.00,,,0.00,WUHU216CR1000,2013-02-20 05:33:00,
2013-02-19 21:37:00,38.6,32.0,0.00,WNW,294,4.5,10.0,77,0.00,,,0.00,WUHU216CR1000,2013-02-20 05:37:00,
2013-02-19 21:42:00,38.6,32.0,0.00,WNW,294,4.5,10.0,77,0.00,,,0.00,WUHU216CR1000,2013-02-20 05:42:00,
2013-02-19 21:47:00,37.5,31.6,0.00,NW,304,2.8,5.2,79,0.00,,,0.00,WUHU216CR1000,2013-02-20 05:47:00,
2013-02-19 21:52:00,37.5,31.6,0.00,NW,304,2.8,5.2,79,0.00,,,0.00,WUHU216CR1000,2013-02-20 05:52:00,
2013-02-19 21:57:00,37.5,31.6,0.00,NW,304,2.8,5.2,79,0.00,,,0.00,WUHU216CR1000,2013-02-20 05:57:00,
2013-02-19 22:02:00,37.0,31.5,0.00,WNW,297,3.3,7.2,80,0.00,,,0.00,WUHU216CR1000,2013-02-20 06:02:00,
2013-02-19 22:07:00,37.0,31.5,0.00,WNW,297,3.3,7.2,80,0.00,,,0.00,WUHU216CR1000,2013-02-20 06:07:00,
2013-02-19 22:12:00,37.0,31.5,0.00,WNW,297,3.3,7.2,80,0.00,,,0.00,WUHU216CR1000,2013-02-20 06:12:00,
2013-02-19 22:17:00,38.0,31.9,0.00,NW,306,4.0,9.1,79,0.00,,,0.00,WUHU216CR1000,2013-02-20 06:17:00,
2013-02-19 22:22:00,38.0,31.9,0.00,NW,306,4.0,9.1,79,0.00,,,0.00,WUHU216CR1000,2013-02-20 06:22:00,
2013-02-19 22:27:00,38.0,31.9,0.00,NW,306,4.0,9.1,79,0.00,,,0.00,WUHU216CR1000,2013-02-20 06:27:00,
2013-02-19 22:32:00,38.5,31.9,0.00,NW,312,4.5,9.3,77,0.00,,,0.00,WUHU216CR1000,2013-02-20 06:32:00,
2013-02-19 22:37:00,38.5,31.9,0.00,NW,312,4.5,9.3,77,0.00,,,0.00,WUHU216CR1000,2013-02-20 06:37:00,
2013-02-19 22:42:00,38.5,31.9,0.00,NW,312,4.5,9.3,77,0.00,,,0.00,WUHU216CR1000,2013-02-20 06:42:00,
2013-02-19 22:47:00,37.3,31.2,0.00,North,2,3.0,6.9,79,0.00,,,0.00,WUHU216CR1000,2013-02-20 06:47:00,
2013-02-19 22:52:00,37.3,31.2,0.00,North,2,3.0,6.9,79,0.00,,,0.00,WUHU216CR1000,2013-02-20 06:52:00,
2013-02-19 22:57:00,37.3,31.2,0.00,North,2,3.0,6.9,79,0.00,,,0.00,WUHU216CR1000,2013-02-20 06:57:00,
2013-02-19 23:02:00,36.2,31.2,0.00,North,3,2.9,6.5,82,0.00,,,0.00,WUHU216CR1000,2013-02-20 07:02:00,
2013-02-19 23:03:00,36.2,31.2,0.00,North,3,2.9,6.5,82,0.00,,,0.00,WUHU216CR1000,2013-02-20 07:03:00,
2013-02-19 23:07:00,36.2,31.2,0.00,North,3,2.9,6.5,82,0.00,,,0.00,WUHU216CR1000,2013-02-20 07:07:00,
2013-02-19 23:12:00,36.2,31.2,0.00,North,3,2.9,6.5,82,0.00,,,0.00,WUHU216CR1000,2013-02-20 07:12:00,
2013-02-19 23:17:00,38.1,31.7,0.00,NW,318,3.6,8.8,78,0.00,,,0.00,WUHU216CR1000,2013-02-20 07:17:00,
2013-02-19 23:22:00,38.1,31.7,0.00,NW,318,3.6,8.8,78,0.00,,,0.00,WUHU216CR1000,2013-02-20 07:22:00,
2013-02-19 23:27:00,38.1,31.7,0.00,NW,318,3.6,8.8,78,0.00,,,0.00,WUHU216CR1000,2013-02-20 07:27:00,
2013-02-19 23:32:00,38.1,31.6,0.00,NW,311,3.4,8.3,77,0.00,,,0.00,WUHU216CR1000,2013-02-20 07:32:00,
2013-02-19 23:33:00,38.1,31.6,0.00,NW,311,3.4,8.3,77,0.00,,,0.00,WUHU216CR1000,2013-02-20 07:33:00,
2013-02-19 23:37:00,38.1,31.6,0.00,NW,311,3.4,8.3,77,0.00,,,0.00,WUHU216CR1000,2013-02-20 07:37:00,
2013-02-19 23:42:00,38.1,31.6,0.00,NW,311,3.4,8.3,77,0.00,,,0.00,WUHU216CR1000,2013-02-20 07:42:00,
2013-02-19 23:47:00,38.0,31.6,0.00,WNW,297,5.2,9.2,78,0.00,,,0.00,WUHU216CR1000,2013-02-20 07:47:00,
2013-02-19 23:52:00,38.0,31.6,0.00,WNW,297,5.2,9.2,78,0.00,,,0.00,WUHU216CR1000,2013-02-20 07:52:00,
2013-02-19 23:57:00,38.0,31.6,0.00,WNW,297,5.2,9.2,78,0.00,,,0.00,WUHU216CR1000,2013-02-20 07:57:00,